Regional Weather Roundup
Issued by NWS Sterling, VA

Home | Current Version | Previous Version | Text Only | Print | Product List | Glossary Off
Versions: 1 2 3 4 5 6 7 8 9 10 11 12 13 14 15 16 17 18 19 20 21 22 23 24 25 26 27 28 29 30 31 32 33 34 35 36 37 38 39 40 41 42 43 44 45 46 47 48 49 50

000
ASUS41 KLWX 272210
RWRLWX

REGIONAL WEATHER ROUNDUP
NATIONAL WEATHER SERVICE BALTIMORE MD/WASHINGTON DC
600 PM EDT SUN JUL 27 2014

Note: "FAIR" indicates few or no clouds below 12,000 feet
with no significant weather and/or obstructions to visibility.
 TC=TEMPERATURE CELSIUS

 * =Non NWS site. Station does not report precipitation (e.g. rain,
    snow, etc.), thunder, or fog.

DCZ001-MDZ009-015-VAZ040>042-051-053>054-272300-
WASHINGTON METRO
  /KDAA//-FT BELVOIR

CITY           SKY/WX    TMP DP  RH WIND       PRES   REMARKS
WASHINGTON NAT CLOUDY    83  69  62 S16G23    29.72F
DULLES         CLOUDY    81  71  71 S13       29.71F
ANDREWS AFB    PTSUNNY   81  71  72 SW15      29.72F
QUANTICO       CLOUDY    82  71  69 SW9       29.73F
COLLEGE PARK*  CLOUDY    84  70  61 S7        29.70F
LEESBURG*      CLOUDY    84  73  70 S15       29.72F HX  91
MANASSAS*      MOSUNNY   82  73  74 SW7       29.72F
GAITHERSBURG*  CLOUDY    81  70  69 S8        29.74F

$$

MDZ006>007-011-014-272300-
BALTIMORE METRO

CITY           SKY/WX    TMP DP  RH WIND       PRES   REMARKS
BWI AIRPORT    PTSUNNY   83  70  64 S9        29.69F
MD SCIENCE CTR   N/A     85  70  60 MISG      29.69F
MARTIN STATE   PTSUNNY   84  75  74 S13       29.71F HX  92
ANNAPOLIS      MOSUNNY   83  70  64 SW8       29.71F
FORT MEADE*    PTSUNNY   81  70  69 S5        29.73F

$$

MDZ012-015-019>023-272300-
MARYLAND EASTERN SHORE

CITY           SKY/WX    TMP DP  RH WIND       PRES   REMARKS
OCEAN CITY     MOSUNNY   83  71  67 SW7       29.74F
SALISBURY      SUNNY     84  70  62 SW9       29.75F
CAMBRIDGE*     PTSUNNY   81  70  69 S3        29.74S
EASTON*        PTSUNNY   82  73  74 SW10G20   29.77F

$$

MDZ017>025-272300-
SOUTHERN MARYLAND

CITY           SKY/WX    TMP DP  RH WIND       PRES   REMARKS
PATUXENT RIVER CLOUDY    80  71  74 SW5       29.74F
ST INIGOES     CLOUDY    82  70  66 S8        29.73F
LEONARDTOWN*   CLOUDY    81  70  69 S5        29.76F

$$

MDZ003>005-272300-
NORTH CENTRAL MARYLAND

CITY           SKY/WX    TMP DP  RH WIND       PRES   REMARKS
FREDERICK*     SUNNY     84  73  70 S8        29.71F HX  91
HAGERSTOWN APT PTSUNNY   81  68  64 SW10G21   29.68F
WESTMINSTER*   CLOUDY    84  73  70 SW9       29.71F HX  91

$$

MDZ501>502-272300-
WESTERN MARYLAND

CITY           SKY/WX    TMP DP  RH WIND       PRES   REMARKS
OAKLAND*       PTSUNNY   70  64  83 SW9       29.83S
CUMBERLAND*    PTSUNNY   84  66  54 S3        29.74F

$$

VAZ025>031-272300-
SHENANDOAH VALLEY

CITY           SKY/WX    TMP DP  RH WIND       PRES   REMARKS
WINCHESTER*    PTSUNNY   81  70  69 SW10      29.72F
STAUNTON*      MOSUNNY   81  67  61 SW17G23   29.81S

$$

WVZ021-048>050-054>055-272300-
EASTERN WEST VIRGINIA PANHANDLE

CITY           SKY/WX    TMP DP  RH WIND       PRES   REMARKS
MARTINSBURG    CLOUDY    80  68  66 SW9       29.71F
PETERSBURG*    MOSUNNY   85  56  36 W8        29.74S

$$

VAZ036>039-050-272300-
CENTRAL FOOTHILLS

CITY           SKY/WX    TMP DP  RH WIND       PRES   REMARKS
CHARLOTTESVILL PTSUNNY   82  70  66 SW8       29.75F
ORANGE*        CLOUDY    82  70  65 S10G24    29.76S

$$

VAZ055>057-272300-
NORTH AND CENTRAL PIEDMONT

CITY           SKY/WX    TMP DP  RH WIND       PRES   REMARKS
FREDERICKSBRG* CLOUDY    83  73  71 SW13      29.73F
STAFFORD*      CLOUDY    82  76  83 SW6       29.77F

$$

NCZ024-NYZ072-PAZ021-071-VAZ022-071-272300-
OTHER REGIONAL OBSERVATIONS

CITY           SKY/WX    TMP DP  RH WIND       PRES   REMARKS
NEW YORK CITY  MOSUNNY   85  64  49 SW8       29.71F
PHILADELPHIA   PTSUNNY   87  70  56 S10       29.69F HX  92
PITTSBURGH     PTSUNNY   72  65  78 S9        29.68F
ROANOKE        PTSUNNY   82  66  58 SW8       29.82F
RICHMOND       PTSUNNY   86  69  56 SW12      29.76F HX  90
RALEIGH        PTSUNNY   85  70  60 SW16      29.83F

$$

ANZ530>537-272300-
MARINE OBSERVATIONS

STATION/POSITION TIME  TEMP    WIND        PRES
                       AIR SEA DIR/SP/G
                 (UTC) (F)     (DEG/KT/KT) (MB)
THOMAS PT LIGHT  2200   81 80  200/ 12/ 13 1006.6F
BALT KEY BRIDGE  2200   83     180/  9/ 13 1005.4F
COVE POINT       2200   81     230/  8/  9 1006.9F
LEWISETTA        2200   82 81  220/ 10/ 13 1006.8F
SOLOMONS ISLAND  2200      81                N/A
PINEY POINT      2200          240/  8/ 10   N/A

$$



USA.gov is the U.S. government's official web portal to all federal, state and local government web resources and services.